Wind_Speed
12 12 16 14 12 11 10 10 10 10 10 7 24 17 15 17 15 15 14 14 15 15 14 7 9 9 8 8 7 6 6 6 6 6 6 5 3 3 4 3 8 11 6 8
15 17 14 11 11 6 8 5 13 9 6 11 21 17 15 15 18 17 16 15 15 15 16 8 8 9 6 6 6 5 5 5 6 6 5 5 5 2 6 10 15 24 5 12
18 14 13 14 8 8 9 10 11 11 8 10 9 15 18 14 14 17 16 15 15 16 17 11 8 6 6 5 5 5 7 7 7 6 6 6 7 7 12 14 14 12 5 23
18 14 17 12 13 12 14 9 4 10 14 16 13 14 22 18 18 21 18 19 18 18 18 12 7 7 7 5 6 5 6 9 8 7 5 5 5 6 11 14 14 10 11 14
21 18 13 16 15 15 13 2 5 10 11 15 19 12 27 22 21 21 19 22 18 22 20 18 9 7 9 9 5 5 6 7 7 6 5 5 4 5 6 11 12 7 8 12
19 16 15 18 16 15 13 6 7 10 14 19 17 13 26 24 26 21 22 24 21 24 21 21 14 12 11 10 9 8 8 8 8 6 4 3 1 2 2 4 5 9 5 12
21 22 18 16 19 17 14 11 12 11 11 14 22 12 14 6 18 11 22 26 24 25 24 24 23 16 15 14 13 12 12 10 9 7 5 4 5 5 6 9 12 11 12 14
24 22 20 21 23 20 18 18 18 4 6 13 12 7 4 13 8 13 16 15 23 25 28 29 27 24 17 17 17 14 12 11 9 8 8 8 10 13 15 18 18 18 20 21
24 26 22 22 20 19 17 22 22 21 20 11 16 13 7 7 5 7 6 11 18 26 27 30 29 28 22 20 18 15 10 12 11 11 13 17 16 16 17 22 22 25 31 31
22 19 22 21 21 24 22 14 18 14 11 8 11 15 11 15 8 7 4 10 15 20 23 29 31 32 32 25 25 23 20 18 20 20 21 23 23 21 20 22 24 29 34 37
28 22 20 28 29 25 24 20 17 18 14 10 4 10 16 15 10 6 4 7 9 17 26 22 30 30 32 30 29 24 27 25 25 24 23 26 26 26 24 26 27 31 36 39
31 23 24 27 24 23 22 23 18 21 13 15 7 15 12 9 6 7 4 5 10 13 14 14 19 29 32 34 27 30 35 20 19 24 27 33 39 18 19 26 31 35 41 42
30 32 24 25 27 23 27 25 24 19 18 18 14 15 14 13 8 8 7 3 5 14 8 15 28 39 36 39 34 17 21 25 24 34 28 11 28 25 27 39 42 36 40 44
31 32 31 25 25 26 28 27 28 26 25 22 16 18 18 14 10 9 5 2 4 8 10 16 21 34 25 25 22 24 30 32 21 32 22 26 21 25 31 36 30 35 41 47
33 32 33 33 26 25 23 27 28 25 25 26 8 4 17 18 15 9 4 6 9 8 13 18 22 24 21 19 21 17 30 30 31 33 35 34 29 31 31 32 36 42 48 55
29 29 30 33 29 27 26 28 25 29 28 22 20 7 23 20 23 12 11 13 10 10 21 16 32 34 33 26 16 20 29 32 29 30 34 36 33 30 35 40 45 50 56 61
25 32 28 31 30 28 31 21 28 24 22 23 22 14 21 18 14 11 7 11 13 11 17 22 30 34 33 21 27 30 31 31 30 29 29 32 34 39 44 48 52 57 57 52
31 31 30 30 25 24 30 21 22 19 21 21 17 17 21 20 15 15 15 15 15 18 22 27 34 30 27 22 18 20 21 20 21 26 31 36 41 46 51 55 58 53 48 44
28 33 30 26 29 25 31 25 24 25 23 20 20 17 15 14 18 18 18 18 18 20 18 18 19 20 19 18 17 18 20 24 29 33 38 44 49 54 56 52 45 42 40 42
32 31 30 26 26 21 27 24 21 21 20 15 17 14 15 22 12 13 18 15 14 13 13 14 15 15 15 16 18 23 27 32 37 43 48 52 53 45 40 39 37 37 40 42
20 21 37 33 24 28 11 7 23 24 22 24 20 19 14 13 16 22 20 15 12 12 13 16 18 18 20 21 25 31 35 39 44 49 44 39 39 38 36 35 33 37 39 35
25 23 25 28 28 28 16 16 23 24 16 16 16 18 21 23 18 19 21 18 15 15 16 19 21 24 28 28 32 37 41 45 44 41 41 39 36 33 33 34 37 38 37 33
37 37 32 12 25 26 24 25 19 16 20 18 16 19 23 19 17 17 20 19 18 17 19 22 24 27 33 34 37 43 44 40 38 38 36 33 31 33 33 35 36 34 31 31
41 35 31 26 12 20 19 19 22 14 18 17 22 22 18 19 18 18 20 21 23 23 22 23 26 29 36 39 43 44 39 37 37 35 32 31 32 33 34 33 32 30 29 32
30 32 19 15 27 30 26 25 25 27 24 25 21 15 17 19 19 22 20 22 21 19 22 27 30 33 39 42 41 38 33 33 33 32 32 32 32 32 32 30 27 25 26 31
16 31 22 29 32 18 26 28 28 28 20 16 17 17 18 20 22 24 19 16 19 22 26 31 35 37 39 34 33 32 31 31 32 32 32 30 31 31 30 28 23 20 24 24
Wind_Direction
223 211 218 220 238 278 292 229 169 165 170 206 161 154 165 182 175 174 184 184 184 189 194 203 191 196 198 202 199 202 195 184 179 185 200 216 229 239 267 320 276 254 311 312
210 219 221 225 242 258 254 258 167 143 171 221 157 171 174 182 192 182 183 192 188 188 200 213 206 205 209 201 204 215 219 209 206 210 226 245 255 212 256 258 277 309 298 253
214 222 222 226 229 203 210 220 159 184 185 228 251 179 169 187 195 188 193 196 193 199 203 213 203 205 207 205 205 208 220 218 218 220 236 253 271 276 259 278 322 279 290 301
222 223 221 217 214 208 214 219 271 190 199 215 211 214 178 186 198 197 194 193 194 202 215 227 200 192 187 209 208 220 229 216 220 232 246 260 268 275 304 329 340 334 331 331
220 224 213 215 212 211 232 71 207 238 257 258 221 246 186 194 197 205 205 203 202 205 205 224 206 187 185 197 199 196 180 188 199 216 237 263 292 315 47 305 348 325 353 4
224 218 219 223 211 219 230 239 245 247 246 237 238 234 162 195 198 209 212 210 206 207 210 223 221 207 200 194 194 189 172 171 171 185 192 196 280 318 338 346 346 360 16 334
218 216 223 215 214 218 217 218 216 222 222 241 239 206 139 153 183 201 208 203 204 210 211 219 232 223 202 189 182 180 176 179 191 205 220 236 269 302 321 321 318 334 329 324
212 216 211 207 212 219 217 218 228 200 251 221 162 196 204 122 148 212 211 208 210 207 217 216 224 236 204 189 186 185 180 191 203 231 243 259 269 279 294 301 303 308 311 312
204 226 215 212 214 207 214 231 242 282 279 269 182 198 195 204 188 203 228 232 224 217 216 221 219 225 238 204 202 211 207 209 224 244 258 263 262 275 292 299 309 306 306 311
227 220 222 209 212 220 221 220 238 247 279 232 250 162 158 148 155 172 246 232 233 234 216 228 224 226 240 243 222 221 228 231 237 243 253 256 257 262 275 284 296 304 304 303
226 241 235 203 206 214 217 229 229 237 236 296 223 69 129 138 151 151 181 228 233 233 233 235 232 230 235 241 233 243 239 227 237 243 252 256 255 258 270 279 288 296 302 303
217 230 246 200 213 216 227 220 222 247 248 273 314 146 152 132 138 148 145 221 231 235 241 241 250 237 216 201 226 236 240 244 277 256 252 258 249 247 255 278 291 298 302 302
212 223 239 241 206 209 225 221 221 233 253 267 251 146 153 154 159 138 168 164 291 241 244 247 247 225 233 280 218 229 270 274 270 260 204 226 261 276 268 308 304 295 297 297
217 219 229 229 226 214 215 222 230 227 224 238 218 164 171 169 159 142 132 64 268 262 253 266 267 265 271 262 230 215 237 276 283 275 275 284 279 285 279 300 299 295 298 299
219 230 225 234 242 225 219 219 228 235 237 228 218 172 162 159 172 184 275 292 318 273 272 252 287 283 287 166 242 259 268 261 273 283 286 283 297 292 289 295 299 301 300 302
208 228 224 235 236 245 238 221 216 226 232 240 254 201 184 213 226 242 292 308 303 270 246 267 261 262 264 299 289 268 261 272 274 278 281 290 295 292 298 298 299 300 303 305
210 220 219 235 233 242 248 234 210 216 220 225 230 184 159 156 166 188 241 299 291 248 227 234 251 261 274 266 265 264 273 281 278 277 283 288 292 293 296 298 299 302 305 304
208 219 217 231 227 244 243 230 226 219 220 212 205 169 163 181 216 252 276 288 258 253 261 250 254 261 268 277 268 273 281 284 284 286 289 292 295 295 297 300 304 305 303 304
208 213 222 227 231 235 238 231 223 231 239 233 190 179 209 233 263 272 280 280 275 281 287 283 280 274 275 279 282 285 288 290 292 294 295 294 297 301 303 304 303 303 302 307
210 205 218 218 241 232 235 229 211 217 235 203 198 194 221 245 261 251 268 274 267 273 273 271 273 276 278 283 287 290 293 293 296 298 300 301 302 303 305 305 303 300 303 309
217 216 203 221 226 238 215 232 205 216 224 211 202 208 203 226 210 247 262 261 250 260 266 270 275 280 284 287 290 291 293 297 299 302 304 306 304 306 305 302 302 304 309 310
203 222 223 218 229 241 204 206 205 208 202 172 186 188 190 216 220 237 256 260 269 268 268 270 277 282 284 290 291 294 300 304 305 304 303 303 303 303 304 307 309 311 312 311
207 211 219 235 231 235 194 209 205 188 186 186 179 199 213 226 235 248 251 255 264 268 268 270 276 284 288 293 298 302 304 303 304 305 304 303 302 303 307 307 308 309 309 308
214 212 223 209 176 180 196 183 197 194 217 194 185 197 208 217 236 250 251 255 264 270 268 274 280 287 291 298 302 301 301 300 305 306 305 305 303 304 304 307 307 311 309 310
209 207 200 183 169 169 184 203 186 199 173 178 197 215 192 212 240 254 261 263 264 265 275 283 287 294 298 303 302 303 305 301 304 306 305 305 304 304 304 308 315 312 311 308
204 212 183 196 184 189 173 172 187 196 197 197 191 200 213 240 251 257 260 258 269 278 285 290 296 303 302 302 305 308 306 307 306 306 305 307 307 306 310 309 311 315 315 315
Height
3188 3192 3191 3188 3187 3188 3185 3183 3186 3190 3196 3196 3196 3201 3205 3207 3208 3210 3212 3212 3212 3213 3213 3213 3214 3215 3215 3217 3218 3219 3220 3221 3222 3223 3223 3224 3226 3227 3228 3228 3228 3221 3226 3230
3189 3188 3187 3187 3187 3188 3187 3184 3186 3191 3195 3196 3196 3197 3202 3206 3207 3208 3210 3212 3213 3214 3214 3212 3213 3214 3215 3216 3218 3219 3220 3221 3221 3222 3222 3224 3226 3227 3223 3221 3220 3206 3218 3219
3184 3184 3186 3186 3187 3189 3189 3185 3186 3190 3194 3196 3195 3196 3199 3204 3207 3207 3209 3210 3214 3214 3213 3211 3212 3213 3214 3215 3216 3218 3219 3220 3221 3222 3222 3223 3225 3224 3225 3224 3217 3215 3173 3220
3182 3181 3183 3185 3187 3189 3187 3186 3187 3187 3191 3192 3192 3191 3193 3198 3203 3204 3206 3206 3209 3212 3212 3211 3211 3212 3212 3213 3215 3216 3218 3219 3220 3221 3221 3222 3225 3223 3221 3220 3215 3218 3221 3224
3179 3179 3181 3183 3185 3187 3186 3185 3186 3189 3189 3189 3186 3187 3187 3192 3198 3202 3204 3204 3206 3207 3208 3209 3209 3210 3210 3211 3213 3215 3216 3217 3219 3219 3220 3220 3222 3223 3221 3219 3219 3223 3224 3223
3176 3178 3179 3181 3183 3184 3185 3187 3188 3189 3188 3186 3183 3184 3182 3187 3191 3197 3200 3201 3204 3205 3205 3205 3207 3208 3208 3209 3210 3212 3214 3215 3216 3217 3218 3219 3220 3221 3221 3222 3222 3221 3221 3217
3173 3174 3176 3179 3181 3182 3184 3186 3185 3185 3182 3179 3176 3181 3185 3183 3190 3192 3192 3195 3199 3202 3201 3200 3200 3204 3205 3205 3206 3207 3210 3211 3213 3215 3216 3217 3217 3217 3219 3220 3219 3219 3218 3215
3169 3171 3172 3174 3177 3178 3181 3182 3176 3172 3170 3170 3175 3178 3182 3184 3188 3191 3193 3196 3194 3196 3198 3194 3192 3195 3201 3202 3203 3203 3204 3206 3208 3210 3211 3212 3213 3214 3214 3215 3216 3215 3215 3213
3163 3167 3168 3172 3174 3176 3178 3179 3177 3175 3171 3170 3171 3177 3179 3182 3187 3190 3192 3193 3194 3190 3191 3193 3194 3194 3199 3201 3201 3201 3201 3200 3199 3199 3201 3202 3205 3207 3208 3208 3210 3211 3208 3208
3159 3161 3163 3167 3172 3173 3173 3177 3178 3175 3171 3167 3167 3172 3175 3179 3184 3187 3190 3191 3191 3191 3188 3192 3193 3191 3194 3198 3201 3195 3193 3191 3188 3189 3193 3195 3195 3197 3199 3202 3203 3204 3203 3202
3157 3158 3158 3160 3164 3168 3172 3172 3173 3172 3169 3166 3168 3176 3176 3178 3181 3185 3187 3189 3190 3191 3190 3190 3190 3188 3193 3194 3193 3190 3172 3170 3179 3190 3196 3197 3191 3194 3195 3196 3198 3198 3198 3197
3152 3155 3154 3155 3160 3165 3167 3169 3172 3170 3171 3169 3170 3177 3178 3181 3182 3184 3186 3186 3188 3188 3192 3193 3192 3183 3171 3157 3185 3183 3167 3163 3178 3179 3172 3191 3166 3176 3183 3191 3191 3189 3189 3188
3148 3151 3152 3152 3155 3159 3163 3165 3168 3170 3170 3169 3169 3173 3175 3180 3181 3183 3184 3186 3186 3186 3190 3191 3182 3173 3171 3161 3130 3178 3175 3176 3171 3172 3133 3157 3179 3180 3180 3183 3182 3179 3180 3179
3142 3145 3147 3145 3148 3153 3157 3161 3163 3165 3167 3167 3168 3170 3172 3177 3179 3182 3183 3183 3185 3184 3188 3183 3177 3174 3150 3143 3170 3172 3176 3179 3167 3170 3174 3173 3178 3179 3180 3178 3175 3173 3171 3169
3137 3138 3143 3145 3145 3147 3151 3155 3159 3159 3161 3162 3164 3166 3170 3173 3176 3178 3180 3181 3181 3183 3183 3186 3171 3161 3168 3157 3179 3168 3172 3177 3174 3171 3172 3170 3170 3177 3177 3172 3168 3164 3162 3159
3131 3135 3140 3141 3142 3142 3143 3145 3151 3156 3158 3159 3161 3161 3165 3170 3174 3175 3175 3175 3176 3179 3179 3179 3171 3164 3167 3169 3164 3166 3171 3175 3173 3172 3171 3168 3168 3170 3166 3163 3159 3156 3152 3146
3127 3132 3136 3136 3140 3140 3138 3139 3143 3149 3153 3158 3160 3158 3161 3167 3171 3171 3170 3169 3173 3174 3176 3173 3163 3165 3165 3164 3165 3167 3170 3168 3166 3167 3167 3166 3164 3162 3159 3154 3150 3146 3140 3134
3120 3126 3131 3133 3138 3133 3132 3137 3141 3144 3148 3151 3153 3155 3158 3162 3164 3165 3166 3168 3167 3168 3167 3168 3164 3164 3163 3165 3166 3165 3162 3163 3164 3164 3163 3161 3157 3153 3149 3144 3138 3134 3130 3125
3114 3122 3125 3127 3129 3131 3131 3133 3137 3141 3146 3149 3144 3149 3152 3155 3159 3160 3163 3163 3163 3162 3163 3162 3161 3162 3162 3161 3160 3161 3161 3161 3160 3159 3156 3152 3147 3141 3137 3133 3129 3124 3120 3115
3109 3113 3121 3123 3123 3122 3126 3130 3132 3138 3140 3143 3141 3145 3147 3152 3159 3156 3157 3158 3159 3160 3160 3159 3159 3159 3159 3160 3160 3159 3158 3156 3154 3150 3145 3141 3137 3132 3128 3124 3120 3117 3112 3106
3103 3106 3110 3117 3119 3121 3122 3123 3127 3133 3138 3135 3138 3141 3144 3148 3155 3152 3153 3155 3157 3157 3157 3157 3156 3157 3156 3157 3156 3154 3151 3150 3146 3141 3136 3132 3128 3124 3120 3116 3113 3108 3102 3096
3099 3104 3107 3112 3115 3116 3118 3121 3127 3131 3131 3134 3136 3139 3141 3145 3149 3151 3151 3153 3154 3154 3154 3153 3153 3152 3150 3153 3150 3146 3144 3140 3136 3132 3128 3124 3120 3116 3113 3108 3104 3099 3094 3089
3095 3100 3104 3107 3107 3110 3112 3119 3120 3124 3129 3133 3137 3136 3140 3143 3144 3146 3147 3148 3149 3150 3151 3150 3149 3148 3145 3144 3142 3138 3135 3132 3128 3124 3120 3116 3112 3108 3105 3101 3097 3092 3088 3083
3086 3092 3097 3099 3102 3103 3113 3114 3118 3122 3125 3131 3134 3136 3137 3138 3139 3141 3143 3144 3144 3145 3145 3146 3145 3143 3139 3137 3134 3129 3127 3124 3120 3116 3112 3108 3105 3101 3097 3094 3090 3086 3081 3076
3077 3089 3083 3091 3096 3096 3101 3107 3112 3117 3123 3126 3129 3132 3133 3132 3134 3135 3138 3139 3140 3142 3141 3139 3139 3138 3133 3129 3124 3120 3119 3115 3112 3109 3105 3102 3098 3094 3090 3087 3083 3080 3077 3071
3074 3076 3080 3088 3092 3095 3095 3102 3109 3114 3119 3123 3125 3127 3127 3128 3130 3130 3135 3136 3135 3135 3135 3133 3130 3128 3124 3121 3117 3114 3111 3108 3104 3101 3097 3095 3090 3087 3083 3080 3077 3076 3070 3066